timestamp,surface_pressure_avg,surface_temp_avg,battery_voltage,lat,long
2021-07-14 00:09:01+00:00,295.2664,12.55,13.29,47.84626,-54.09684
2021-07-14 00:19:00+00:00,300.3231,12.53,12.89,47.84626,-54.09684
2021-07-14 00:29:00+00:00,303.5146,12.55,12.89,47.84626,-54.09684
2021-07-14 00:39:00+00:00,308.9213,12.55,12.89,47.84626,-54.09684
2021-07-14 00:49:00+00:00,316.6213,12.56,12.89,47.84626,-54.09684
2021-07-14 00:59:00+00:00,318.8596,12.57,12.89,47.84626,-54.09684
2021-07-14 01:09:00+00:00,323.5129,12.59,12.89,47.84626,-54.09684
2021-07-14 01:19:01+00:00,330.2613,12.58,12.73,47.84626,-54.09684
2021-07-14 01:29:01+00:00,334.0864,12.56,12.73,47.84626,-54.09684
2021-07-14 01:39:01+00:00,335.1097,12.56,12.73,47.84626,-54.09684
2021-07-14 01:49:01+00:00,339.2629,12.4,12.73,47.84626,-54.09684
2021-07-14 01:59:01+00:00,344.3713,12.2,12.73,47.84626,-54.09684
2021-07-14 02:09:01+00:00,344.108,12.2,12.73,47.84626,-54.09684
2021-07-14 02:19:00+00:00,345.7679,12.22,12.73,47.84626,-54.09684
2021-07-14 02:29:00+00:00,346.9564,12.27,12.73,47.84626,-54.09684
2021-07-14 02:39:00+00:00,346.8363,12.3,12.73,47.84626,-54.09684
2021-07-14 02:49:00+00:00,343.9296,12.3,12.73,47.84626,-54.09684
2021-07-14 02:59:00+00:00,342.5313,12.3,12.73,47.84626,-54.09684
2021-07-14 03:09:00+00:00,339.1479,12.3,12.73,47.84626,-54.09684
2021-07-14 03:19:01+00:00,335.1247,12.3,12.73,47.84626,-54.09684
2021-07-14 03:29:01+00:00,332.4313,12.3,12.73,47.84626,-54.09684
2021-07-14 03:39:01+00:00,331.49300000000005,12.3,12.73,47.84626,-54.09684
2021-07-14 03:49:01+00:00,329.61800000000005,12.3,12.73,47.84626,-54.09684
2021-07-14 03:59:01+00:00,324.1913,12.3,12.73,47.84626,-54.09684
2021-07-14 04:09:01+00:00,319.1597,12.3,12.73,47.84626,-54.09684
2021-07-14 04:19:00+00:00,315.2664,12.3,12.65,47.84626,-54.09684
2021-07-14 04:29:00+00:00,311.173,12.3,12.65,47.84626,-54.09684
2021-07-14 04:39:00+00:00,302.0197,12.31,12.65,47.84626,-54.09684
2021-07-14 04:49:00+00:00,294.4497,12.4,12.65,47.84626,-54.09684
2021-07-14 04:59:00+00:00,290.163,12.4,12.65,47.84626,-54.09684
2021-07-14 05:09:00+00:00,282.9464,12.42,12.65,47.84626,-54.09684
2021-07-14 05:19:01+00:00,273.2981,12.49,12.65,47.84626,-54.09684
2021-07-14 05:29:01+00:00,266.0414,12.5,12.65,47.84626,-54.09684
2021-07-14 05:39:01+00:00,257.903,12.5,12.65,47.84626,-54.09684
2021-07-14 05:49:01+00:00,247.0281,12.5,12.65,47.84626,-54.09684
2021-07-14 05:59:01+00:00,237.4997,12.5,12.65,47.84626,-54.09684
2021-07-14 06:09:01+00:00,228.8831,12.5,12.65,47.84626,-54.09684
2021-07-14 06:19:00+00:00,217.9948,12.5,12.65,47.84626,-54.09684
2021-07-14 06:29:00+00:00,207.7548,12.5,12.65,47.84626,-54.09684
2021-07-14 06:39:00+00:00,199.4831,12.5,12.65,47.84626,-54.09684
2021-07-14 06:49:00+00:00,191.3632,12.5,12.65,47.84626,-54.09684
2021-07-14 06:59:00+00:00,184.8448,12.5,12.65,47.84626,-54.09684
2021-07-14 07:09:00+00:00,181.3165,12.5,12.65,47.84626,-54.09684
2021-07-14 07:19:01+00:00,176.4065,12.5,12.65,47.84626,-54.09684
2021-07-14 07:29:01+00:00,171.9548,12.5,12.65,47.84626,-54.09684
2021-07-14 07:39:01+00:00,170.1132,12.5,12.65,47.84626,-54.09684
2021-07-14 07:49:01+00:00,167.1098,12.5,12.65,47.84626,-54.09684
2021-07-14 07:59:01+00:00,164.0182,12.5,12.65,47.84626,-54.09684
2021-07-14 08:09:01+00:00,164.7048,12.5,12.65,47.84626,-54.09684
2021-07-14 08:19:01+00:00,166.2581,12.5,12.65,47.84626,-54.09684
2021-07-14 08:29:01+00:00,164.3081,12.5,12.65,47.84626,-54.09684
2021-07-14 08:39:01+00:00,164.7065,12.5,12.65,47.84626,-54.09684
2021-07-14 08:49:01+00:00,169.5182,12.5,12.65,47.84626,-54.09684
2021-07-14 08:59:01+00:00,170.5882,12.5,12.65,47.84626,-54.09684
2021-07-14 09:09:01+00:00,171.5082,12.5,12.65,47.84626,-54.09684
2021-07-14 09:19:01+00:00,176.6964,12.5,12.81,47.84626,-54.09684
2021-07-14 09:29:01+00:00,181.2748,12.5,12.81,47.84626,-54.09684
2021-07-14 09:39:01+00:00,182.3298,12.5,12.81,47.84626,-54.09684
2021-07-14 09:49:01+00:00,184.0281,12.49,12.81,47.84626,-54.09684
2021-07-14 09:59:01+00:00,185.8015,12.49,12.81,47.84626,-54.09684
2021-07-14 10:09:01+00:00,189.8898,12.47,12.81,47.84626,-54.09684
2021-07-14 10:19:01+00:00,195.6564,12.45,13.44,47.84626,-54.09684
2021-07-14 10:29:01+00:00,196.9048,12.45,13.44,47.84626,-54.09684
2021-07-14 10:39:01+00:00,198.2815,12.41,13.44,47.84626,-54.09684
2021-07-14 10:49:01+00:00,201.4664,12.4,13.44,47.84626,-54.09684
2021-07-14 10:59:01+00:00,208.0398,12.4,13.44,47.84626,-54.09684
2021-07-14 11:09:01+00:00,213.1148,12.4,13.44,47.84626,-54.09684
2021-07-14 11:19:01+00:00,215.8181,12.4,14.16,47.84626,-54.09684
2021-07-14 11:29:01+00:00,223.7964,12.4,14.16,47.84626,-54.09684
2021-07-14 11:39:01+00:00,232.5114,12.4,14.16,47.84626,-54.09684
2021-07-14 11:49:01+00:00,236.3664,12.4,14.16,47.84626,-54.09684
2021-07-14 11:59:01+00:00,241.1981,12.4,14.16,47.84626,-54.09684
2021-07-14 12:09:01+00:00,249.9931,12.4,14.16,47.84626,-54.09684
2021-07-14 12:19:01+00:00,256.8014,12.4,14.4,47.84626,-54.09684
2021-07-14 12:29:01+00:00,263.1381,12.41,14.4,47.84626,-54.09684
2021-07-14 12:39:01+00:00,270.5181,12.43,14.4,47.84626,-54.09684
2021-07-14 12:49:01+00:00,277.89799999999997,12.41,14.4,47.84626,-54.09684
2021-07-14 12:59:01+00:00,282.8881,12.4,14.4,47.84626,-54.09684
2021-07-14 13:09:01+00:00,289.613,12.4,14.4,47.84626,-54.09684
2021-07-14 13:19:01+00:00,296.6013,12.4,14.4,47.84626,-54.09684
2021-07-14 13:29:01+00:00,299.6696,12.4,14.4,47.84626,-54.09684
2021-07-14 13:39:01+00:00,303.918,12.4,14.4,47.84626,-54.09684
2021-07-14 13:49:01+00:00,308.853,12.4,14.4,47.84626,-54.09684
2021-07-14 13:59:01+00:00,309.9597,12.4,14.4,47.84626,-54.09684
2021-07-14 14:09:01+00:00,308.0797,12.4,14.4,47.84626,-54.09684
2021-07-14 14:19:01+00:00,310.5314,12.4,14.32,47.84626,-54.09684
2021-07-14 14:29:01+00:00,311.633,12.41,14.32,47.84626,-54.09684
2021-07-14 14:39:01+00:00,310.1862,12.4,14.32,47.84626,-54.09684
2021-07-14 14:49:01+00:00,311.6797,12.4,14.32,47.84626,-54.09684
2021-07-14 14:59:01+00:00,314.6412,12.4,14.32,47.84626,-54.09684
2021-07-14 15:09:01+00:00,314.918,12.4,14.32,47.84626,-54.09684
2021-07-14 15:19:01+00:00,313.1197,12.4,14.24,47.84626,-54.09684
2021-07-14 15:29:01+00:00,310.8079,12.4,14.24,47.84626,-54.09684
2021-07-14 15:39:01+00:00,307.8797,12.45,14.24,47.84626,-54.09684
2021-07-14 15:49:01+00:00,305.1513,12.49,14.24,47.84626,-54.09684
2021-07-14 15:59:01+00:00,303.9847,12.3,14.24,47.84626,-54.09684
2021-07-14 16:09:01+00:00,301.3363,12.0,14.24,47.84626,-54.09684
2021-07-14 16:19:01+00:00,297.3797,12.0,14.16,47.84626,-54.09684
2021-07-14 16:29:01+00:00,293.7647,12.0,14.16,47.84626,-54.09684
2021-07-14 16:39:01+00:00,290.0497,12.08,14.16,47.84626,-54.09684
2021-07-14 16:49:01+00:00,284.5514,12.1,14.16,47.84626,-54.09684
2021-07-14 16:59:01+00:00,277.2381,12.0,14.16,47.84626,-54.09684
2021-07-14 17:09:01+00:00,272.4048,12.09,14.16,47.84626,-54.09684
2021-07-14 17:19:01+00:00,266.0114,12.1,14.08,47.84626,-54.09684
2021-07-14 17:29:01+00:00,256.493,12.2,14.08,47.84626,-54.09684
2021-07-14 17:39:01+00:00,247.0098,12.25,14.08,47.84626,-54.09684
2021-07-14 17:49:01+00:00,242.3114,12.3,14.08,47.84626,-54.09684
2021-07-14 17:59:01+00:00,237.2431,12.3,14.08,47.84626,-54.09684
2021-07-14 18:09:01+00:00,228.7965,12.3,14.08,47.84626,-54.09684
2021-07-14 18:19:01+00:00,221.8465,12.39,13.92,47.84626,-54.09684
2021-07-14 18:29:01+00:00,218.4865,12.4,13.92,47.84626,-54.09684
2021-07-14 18:39:01+00:00,213.9148,12.41,13.92,47.84626,-54.09684
2021-07-14 18:49:01+00:00,207.8815,12.46,13.92,47.84626,-54.09684
2021-07-14 18:59:01+00:00,204.5048,12.49,13.92,47.84626,-54.09684
2021-07-14 19:09:01+00:00,201.6231,12.5,13.92,47.84626,-54.09684
2021-07-14 19:19:01+00:00,196.9848,12.5,13.84,47.84626,-54.09684
2021-07-14 19:29:01+00:00,192.1064,12.5,13.84,47.84626,-54.09684
2021-07-14 19:39:01+00:00,189.5982,12.56,13.84,47.84626,-54.09684
2021-07-14 19:49:01+00:00,187.9898,12.6,13.84,47.84626,-54.09684
2021-07-14 19:59:01+00:00,184.0565,12.6,13.84,47.84626,-54.09684
2021-07-14 20:09:01+00:00,180.6581,12.6,13.84,47.84626,-54.09684
2021-07-14 20:19:01+00:00,183.0115,12.6,13.76,47.84626,-54.09684
2021-07-14 20:29:01+00:00,185.0365,12.64,13.76,47.84626,-54.09684
2021-07-14 20:39:01+00:00,181.2048,12.63,13.76,47.84626,-54.09684
2021-07-14 20:49:01+00:00,181.9265,12.63,13.76,47.84626,-54.09684
2021-07-14 20:59:01+00:00,188.5015,12.64,13.76,47.84626,-54.09684
2021-07-14 21:09:01+00:00,190.5015,12.65,13.76,47.84626,-54.09684
2021-07-14 21:19:00+00:00,189.1215,12.66,13.6,47.84626,-54.09684
2021-07-14 21:29:00+00:00,192.0515,12.69,13.6,47.84626,-54.09684
2021-07-14 21:39:00+00:00,197.9898,12.7,13.6,47.84626,-54.09684
2021-07-14 21:49:00+00:00,198.5214,12.7,13.6,47.84626,-54.09684
2021-07-14 21:59:00+00:00,200.5614,12.8,13.6,47.84626,-54.09684
2021-07-14 22:09:00+00:00,210.6631,12.83,13.6,47.84626,-54.09684
2021-07-14 22:19:01+00:00,216.4531,12.9,13.44,47.84626,-54.09684
2021-07-14 22:29:01+00:00,215.6381,12.92,13.44,47.84626,-54.09684
2021-07-14 22:39:01+00:00,219.0481,12.99,13.44,47.84626,-54.09684
2021-07-14 22:49:01+00:00,225.7131,13.0,13.44,47.84626,-54.09684
2021-07-14 22:59:01+00:00,229.7681,13.0,13.44,47.84626,-54.09684
2021-07-14 23:09:01+00:00,233.6248,13.0,13.44,47.84626,-54.09684
2021-07-14 23:19:01+00:00,239.8031,13.0,13.13,47.84626,-54.09684
2021-07-14 23:29:01+00:00,243.3331,13.0,13.13,47.84626,-54.09684
2021-07-14 23:39:01+00:00,243.6581,13.0,13.13,47.84626,-54.09684
2021-07-14 23:49:01+00:00,246.9814,13.0,13.13,47.84626,-54.09684
2021-07-14 23:59:01+00:00,252.2014,13.0,13.13,47.84626,-54.09684
